Regional Weather Roundup
Issued by NWS

Home | Current Version | Previous Version | Graphics & Text | Print | Product List | Glossary Off
Versions: 1 2 3 4 5 6 7 8 9 10 11 12 13 14 15 16 17 18 19 20 21 22 23 24 25 26 27 28 29 30 31 32 33 34 35 36 37 38 39 40 41 42 43 44 45 46 47 48 49 50

000
ASUS43 KMKX 291359
RWRWI

WISCONSIN REGIONAL WEATHER ROUNDUP
NATIONAL WEATHER SERVICE MILWAUKEE/SULLIVAN WI
900 AM CDT SUN MAR 29 2015

NOTE: "FAIR" INDICATES FEW OR NO CLOUDS BELOW 12,000 FEET WITH NO
SIGNIFICANT WEATHER AND/OR OBSTRUCTIONS TO VISIBILITY.

WIZ001-002-006>008-014>016-023>028-291500-
NORTHWEST WISCONSIN

CITY           SKY/WX    TMP DP  RH WIND       PRES   REMARKS
SUPERIOR ARPT  CLOUDY    37  30  75 SW20G28   29.50F WCI  27
ASHLAND        CLOUDY    35  27  72 S22G28    29.55S WCI  23
HAYWARD        CLOUDY    33  28  81 S18G28    29.56F WCI  22
SIREN          CLOUDY    36  30  80 S20G26    29.56F WCI  25
CUMBERLAND     CLOUDY    32  30  93 S15       29.60F WCI  22
RICE LAKE      CLOUDY    33  30  87 S15G24    29.64F WCI  23
CHETEK         CLOUDY    32  30  92 S12G20    29.64F WCI  23
LADYSMITH      CLOUDY    32  28  86 S8        29.68F WCI  25
EAU CLAIRE     NOT AVBL
MENOMONIE      CLOUDY    34  32  93 S12       29.67F WCI  25
NEW RICHMOND   CLOUDY    33  32  93 S12       29.61F WCI  25
OSCEOLA        CLOUDY    35  33  91 S12       29.62F WCI  27
$$

WIZ003>005-009-010-017-018-291500-
NORTH CENTRAL WISCONSIN

CITY           SKY/WX    TMP DP  RH WIND       PRES   REMARKS
MANITOWISH WTR CLOUDY    29  26  88 S10G23    29.61F WCI  19
ARBOR VITAE    MIX PCPN  32  27  81 S16G25    29.62F WCI  21
WOODRUFF       MIX PCPN  32  27  81 S16G25    29.62F WCI  21
RHINELANDER    LGT SNOW  30  23  75 SW17G25   29.67F WCI  18
EAGLE RIVER    LGT SNOW  30  21  68 S12G22    29.65F WCI  20
LAND O LAKES   LGT SNOW  31  24  76 S12G21    29.63F WCI  21
PHILLIPS       CLOUDY    30  27  86 S13       29.64F WCI  20
TOMAHAWK       LGT SNOW  29  25  84 S3G21     29.69F
MEDFORD        MIX PCPN  30  26  86 S14G20    29.68F WCI  19
MERRILL        LGT SNOW  30  23  75 S12G22    29.72F WCI  21
$$

WIZ029-030-035-036-043>047-291500-
CENTRAL WISCONSIN

CITY           SKY/WX    TMP DP  RH WIND       PRES   REMARKS
WAUSAU         FRZ RAIN  30  24  78 S16       29.72F WCI  19
MOSINEE        FRZ RAIN  30  25  80 S15G21    29.75F WCI  19
MARSHFIELD     FRZ RAIN  31  26  82 S16       29.71F WCI  20
STEVENS POINT  MIX PCPN  30  20  68 S16G23    29.77F WCI  18
WAUPACA        CLOUDY    35  19  52 S17G24    29.84F WCI  24
WAUTOMA        NOT AVBL
WISC RAPIDS    FRZ RAIN  31  25  78 S13       29.77F WCI  21
CAMP DOUGLAS   LGT RAIN  32  32 100 S16G26    29.77F WCI  21
$$

WIZ011>013-019>022-031-037>040-048>050-291500-
NORTHEAST WISCONSIN

CITY           SKY/WX    TMP DP  RH WIND       PRES   REMARKS
ANTIGO         CLOUDY    30  19  63 S18G26    29.74F WCI  18
SHAWANO        CLOUDY    34  19  54 S9G20     29.85F WCI  26
OCONTO         PTSUNNY   34  19  56 S14G21    29.87F WCI  24
STURGEON BAY   CLOUDY    34  18  51 S22G30    29.90F WCI  22
GREEN BAY      PTSUNNY   35  20  54 S18G31    29.87F WCI  24
MANITOWOC      NOT AVBL
APPLETON       PTSUNNY   32  18  55 S21G29    29.86F WCI  20
CLINTONVILLE   CLOUDY    32  19  59 S20       29.85F WCI  20
OSHKOSH        CLOUDY    34  20  56 S23G31    29.86F WCI  22
$$

WIZ032>034-041-042-053>061-291500-
SOUTHWEST WISCONSIN

CITY           SKY/WX    TMP DP  RH WIND       PRES   REMARKS
LA CROSSE      CLOUDY    35  30  82 S15       29.76F WCI  25
SPARTA         MIX PCPN  33  28  83 S8        29.76F WCI  26
VIROQUA        CLOUDY    32  30  92 S12G17    29.76F WCI  23
BOSCOBEL       CLOUDY    35  28  75 S12G24    29.84F WCI  27
PRAIRIE DU CHI CLOUDY    34  28  77 S10       29.84F WCI  26
PLATTEVILLE    CLOUDY    32  28  86 SE14G21   29.88F WCI  22
$$

WIZ056-057-062-063-064-067-068-291500-
SOUTH CENTRAL WISCONSIN

CITY           SKY/WX    TMP DP  RH WIND       PRES   REMARKS
REEDSBURG      LGT RAIN  32  27  81 S15G24    29.84F WCI  22
BARABOO/DELLS  LGT RAIN  32  25  74 S22       29.84F WCI  19
LONE ROCK      NOT AVBL
MINERAL POINT  LGT RAIN  34  28  80 S15G21    29.87F WCI  24
MADISON        LGTSLEET  33  22  63 S18G26    29.90F WCI  22
MIDDLETON      CLOUDY    34  20  56 SW15G23   29.93F WCI  24
WATERTOWN      CLOUDY    32  20  61 S14G20    29.95F WCI  22
MONROE         MIX PCPN  32  23  69 S29G37    29.92F WCI  18
JANESVILLE     CLOUDY    36  19  51 S25G31    29.96F WCI  23
$$

WIZ051-052-058>065-066-070>072-291500-
SOUTHEAST WISCONSIN

CITY           SKY/WX    TMP DP  RH WIND       PRES   REMARKS
MILWAUKEE      CLOUDY    36  15  42 S18G32    30.01F WCI  26
WAUKESHA       SUNNY     32  16  51 S17G29    30.00F WCI  21
MILWAUKEE/TIMM SUNNY     34  12  40 S14G24    30.00F WCI  24
RACINE         PTSUNNY   36  15  42 S15G26    30.04F WCI  27
BURLINGTON     PTSUNNY   33  17  51 S21G29    30.02F WCI  21
KENOSHA        MOSUNNY   36  17  46 SW20G29   30.03F WCI  25
FOND DU LAC    CLOUDY    34  20  56 S23G32    29.88F WCI  22
SHEBOYGAN      PTSUNNY   34  19  54 S21       29.95F WCI  22
WEST BEND      CLOUDY    32  18  55 S14G25    29.97F WCI  22
JUNEAU         CLOUDY    32  19  59 S21G30    29.95F WCI  20
$$

LSZ147-162-291500-
LAKE SUPERIOR

STATION/POSITION TIME  TEMP    WIND        PRES    WAVE
                       AIR SEA DIR/SP/G            HT/PER
                 (UTC) (F)     (DEG/KT/KT) (MB)    (FT/S)
DEVILS ISLAND    1300   36     190/ 12/ 18 1001.0F
PORT WING        1320   37     200/ 14     1000.7F
SAXON HARBOR     1339   36     190/ 14/ 27 1000.0F
$$

LMZ867-665-643>646-291500-
LAKE MICHIGAN

STATION/POSITION TIME  TEMP    WIND        PRES    WAVE
                       AIR SEA DIR/SP/G            HT/PER
                 (UTC) (F)     (DEG/KT/KT) (MB)    (FT/S)
NORTHPORT PIER   1300   35     180/  8/ 21 1012.9F
SISTER BAY       1217   34     200/ 22/ 26   N/A
KEWAUNEE LAKESHO 1300   32     190/ 20/ 24 1014.0F
SHEBOYGAN LAKESH 1300   33     180/ 24/ 27 1016.0F
PORT WASHINGTON  1320   34     190/ 12/ 22 1016.6F
MILWAUKEE LAKESH 1300   33     180/ 16/ 20   N/A
KENOSHA   LAKESH 1300   33     190/ 12/ 20 1018.6F
$$

TC  - TEMPERATURE IN CELSIUS
VSB - VISIBILITY IN STATUTE MILES
WCI - WIND CHILL INDEX
HX  - HEAT INDEX




USA.gov is the U.S. government's official web portal to all federal, state and local government web resources and services.